Location: Cambroso
(45.2833°N, 12.0850°E)
Time: 16:18:50
(UTC+00:00)

CZ-2C R/B - Pass Details

Date: 21 January 2021
Orbit: 704 x 908 km, 98.1° (Epoch: 26 February)

Event Time Altitude Azimuth Distance (km) Brightness Sun altitude
Rises 17:41:28 0° 171° (S) 3,267 6.3 -17.0°
Reaches altitude 10° 17:43:44 10° 174° (S) 2,372 5.6 -17.4°
Maximum altitude 17:48:59 71° 258° (WSW) 884 3.4 -18.3°
Drops below altitude 10° 17:54:35 10° 343° (NNW) 2,520 5.8 -19.3°
Sets 17:57:04 0° 346° (NNW) 3,486 6.5 -19.7°
